Regional Weather Roundup
Issued by NWS Portland, ME

Home | Current Version | Previous Version | Text Only | Print | Product List | Glossary On
Versions: 1 2 3 4 5 6 7 8 9 10 11 12 13 14 15 16 17 18 19 20 21 22 23 24 25 26 27 28 29 30 31 32 33 34 35 36 37 38 39 40 41 42 43 44 45 46 47 48 49 50
000
ASUS41 KGYX 231610
RWRGYX
WEATHER ROUNDUP FOR MAINE AND NEW HAMPSHIRE
NATIONAL WEATHER SERVICE GRAY ME
1200 PM EDT MON APR 23 2018

MEZ002-005-006-010-012-015-018-020-021-024-026-027-029-231700-
MAINE

CITY           SKY/WX    TMP DP  RH WIND       PRES   REMARKS
PORTLAND       FAIR      61  14  16 NW8       30.47
SANFORD        FAIR      58  14  17 VRB3      30.46F
BAR HARBOR     FAIR      57  16  20 SW7       30.44F
WISCASSET      FAIR      59  18  20 W6        30.46
ROCKLAND       FAIR      54  24  31 S13       30.45F
FRYEBURG       FAIR      59  13  16 N8        30.45F
LEWISTONAUBURN FAIR      58  14  17 VRB3      30.45F
AUGUSTA        FAIR      58  12  16 SW6       30.44
WATERVILLE     FAIR      59  15  18 W6        30.42F
BANGOR         FAIR      57  16  20 VRB7G17   30.43
GREENVILLE       N/A     51  15  23 NW8       30.39F
MILLINOCKET    FAIR      55  13  18 VRB7      30.42
HOULTON        FAIR      54  15  21 NW12      30.39
PRESQUE ISLE   FAIR      52  11  19 W7        30.39F
FRENCHVILLE    FAIR      49  14  24 W9        30.37
CARIBOU        FAIR      53   9  17 NW6       30.38F
$$

NHZ002-005-008-009-011-012-014-231700-
NEW HAMPSHIRE

CITY           SKY/WX    TMP DP  RH WIND       PRES   REMARKS
PORTSMOUTH     MOSUNNY   59  14  17 CALM      30.47F
ROCHESTER      FAIR      59  12  15 VRB5      30.46
NASHUA         FAIR      59  16  18 VRB3      30.48F
MANCHESTER     FAIR      61  10  13 CALM      30.47
CONCORD        FAIR      60  15  17 VRB3      30.47
LACONIA        FAIR      57  16  20 VRB3      30.47F
PLYMOUTH       FAIR      58   8  13 CALM      30.45F
BERLIN         FAIR      57  11  16 CALM      30.43
WHITEFIELD     FAIR      56  13  18 VRB3      30.45
JAFFREY        FAIR      56  13  18 VRB5      30.46
KEENE          FAIR      61  10  13 CALM      30.47F
LEBANON        FAIR      59  14  17 VRB5      30.46
MT WASHINGTON  MOSUNNY   30  12  47 NW7         N/A
$$

VTZ005-007-008-231700-
VERMONT

CITY           SKY/WX    TMP DP  RH WIND       PRES   REMARKS
ST JOHNSBURY     N/A     57   9  14 MISG      30.44F
MONTPELIER     FAIR      55  17  22 N5        30.49
BURLINGTON     FAIR      60  14  16 S8        30.46F
$$

MAZ007-012-024-CTZ003-RIZ002-NYZ038-NYZ072-231700-
SOUTHERN NEW ENGLAND AND NY

CITY           SKY/WX    TMP DP  RH WIND       PRES   REMARKS
BOSTON         FAIR      55  22  27 SE12      30.49F
WORCESTER      FAIR      55  16  21 SE9       30.47F
NANTUCKET      FAIR      57  28  33 N8        30.49
PROVIDENCE     FAIR      61  20  20 N6        30.49
HARTFORD       FAIR      59  19  21 SE5       30.48
ALBANY         FAIR      60  19  20 W3        30.48
NEW YORK CITY  FAIR      57  28  33 NE12      30.48
$$

ANZ081-ANZ082-ANZ150-NHZ014-MEZ023>029-231700-
COASTAL MARINE OBSERVATIONS

STATION/POSITION TIME  TEMP    WIND        PRES    WAVE
                       AIR SEA DIR/SP/G            HT/PER
                 (UTC) (F)     (DEG/KT/KT) (MB)    (FT/S)
MOUNT DESERT ROC 1600   42     230/  8/  9 1031.7F
MATINICUS ROCK   1500   43     250/  5/  5 1031.9F
ISLE OF SHOALS   1500   52     180/  2/  2 1032.6F
JEFFREYS LEDGE   1536      44                N/A     1/15
CASHES LEDGE BUO 1550   47 42              1032.7F   1/ 8
$$

.............KEY..............
   WCI - WIND CHILL
   TC  - TEMPERATURE IN CELSIUS
   VSB - VISIBILITY IN MILES
   HX  - HEAT INDEX
   FAIR- INDICATES FEW OR NO CLOUDS BELOW 12,000 FT, WITH NO
         SIGNIFICANT WEATHER AND/OR OBSTRUCTIONS TO VISIBILITY.






USA.gov is the U.S. government's official web portal to all federal, state and local government web resources and services.